Regional Weather Roundup
Issued by NWS

Home | Current Version | Previous Version | Graphics & Text | Print | Product List | Glossary Off
Versions: 1 2 3 4 5 6 7 8 9 10 11 12 13 14 15 16 17 18 19 20 21 22 23 24 25 26 27 28 29 30 31 32 33 34 35 36 37 38 39 40 41 42 43 44 45 46 47 48 49 50

000
ASUS43 KDTX 102010
RWRMI
MICHIGAN HOURLY REGIONAL WEATHER ROUNDUP
NATIONAL WEATHER SERVICE DETROIT/PONTIAC MI
ISSUED BY NATIONAL WEATHER SERVICE GRAND RAPIDS MI
300 PM EST SUN DEC 10 2017

NOTE: "FAIR" INDICATES FEW OR NO CLOUDS BELOW 12,000 FEET WITH NO
SIGNIFICANT WEATHER AND/OR OBSTRUCTION TO VISIBILITY.

MIZ047>049-052>055-059>063-066>070-074>076-081>083-102100-
SOUTHEAST LOWER MICHIGAN

CITY           SKY/WX    TMP DP  RH WIND       PRES   REMARKS
ADRIAN         CLOUDY    26  17  68 W9        29.89F WCI  17
ALMA           CLOUDY    26  25  95 SW7       29.84R FOG     WCI  19
ANN ARBOR      CLOUDY    26  18  71 S12       29.86F WCI  16
BAD AXE        LGT SNOW  26  22  84 W12       29.82R WCI  16
DETROIT CITY   CLOUDY    25  16  68 SW13      29.88F WCI  14
DETROIT        CLOUDY    27  18  69 SW16      29.89F WCI  15
FLINT          CLOUDY    25  16  68 SW8       29.84F WCI  16
GROSSE ILE     CLOUDY    27  18  71 W9G17     29.88F WCI  17
HILLSDALE      CLOUDY    28  18  64 SW10G16   29.84F WCI  19
HOWELL         CLOUDY    26  19  73 SW8       29.84S WCI  18

CITY           SKY/WX    TMP DP  RH WIND       PRES   REMARKS
JACKSON        CLOUDY    27  17  66 SW15      29.85S WCI  15
LANSING        CLOUDY    25  18  74 SW10      29.85S WCI  15
MASON          CLOUDY    27  16  63 SW8       29.85R WCI  18
MONROE         CLOUDY    27  18  67 SW10      29.89S WCI  17
MT. CLEMENS    CLOUDY    26  18  70 SW12      29.85S WCI  16
PONTIAC        CLOUDY    25  16  68 SW12      29.83S WCI  14
PORT HOPE        N/A     28  23  81 VRB7      29.81R WCI  21
PORT HURON     CLOUDY    27  16  63 SW6       29.86S WCI  20
TRI CITIES     CLOUDY    26  25  96 SW13      29.84R FOG     WCI  15
YPSILANTI      CLOUDY    28  18  66 SW15      29.88F WCI  16
$$
MIZ043>046-050>051-056>058-064>065-071>073-077>080-102100-
SOUTHWEST LOWER MICHIGAN

CITY           SKY/WX    TMP DP  RH WIND       PRES   REMARKS
BATTLE CREEK   CLOUDY    27  19  72 SW10      29.85S WCI  17
BENTON HARBOR  CLOUDY    31  21  66 W13       29.87S WCI  21
BIG RAPIDS     CLOUDY    26  22  88 NW5       29.82R FOG     WCI  20
COLDWATER      CLOUDY    28  19  71 SW10G18   29.86S WCI  18
HOLLAND        CLOUDY    31  23  72 NW10      29.86R WCI  22
GRAND RAPIDS   CLOUDY    26  22  84 SW12      29.84R WCI  16
KALAMAZOO      CLOUDY    28  19  69 SW9       29.86S WCI  19
MARSHALL       CLOUDY    26  18  71 SW13      29.85S WCI  15
MOUNT PLEASANT LGT SNOW  28  25  90 SW6       29.82R WCI  21
MUSKEGON       FLURRIES  30  22  72 NW9       29.86R WCI  22
STURGIS        CLOUDY    27  20  75 SW12      29.86F WCI  17
$$
MIZ016>042-102100-
NORTHERN LOWER MICHIGAN

CITY           SKY/WX    TMP DP  RH WIND       PRES   REMARKS
ALPENA         SNOW      27  24  89 W6        29.78R VSB 1/2 WCI  20
BEAVER ISLAND  FLURRIES  24  17  74 N15G21    29.84R WCI  11
BELLAIRE       CLOUDY    28  23  81 N7        29.81R WCI  21
CADILLAC       FLURRIES  24  21  90 W7        29.79R WCI  16
CHARLEVOIX     CLOUDY    27  19  70 NW15G24   29.84R WCI  15
GAYLORD        LGT SNOW  24  18  77 VRB6      29.75R WCI  17
HOUGHTON LAKE  FLURRIES  25  19  78 W13       29.79R WCI  14
MANISTEE       CLOUDY    27  19  72 NW8       29.86R WCI  19
OSCODA         CLOUDY    28  19  66 W12       29.79R WCI  18
PELLSTON       CLOUDY    23  15  71 N15       29.82R WCI  10
TRAVERSE CITY  FLURRIES  27  20  75 W9        29.82R WCI  18
LUDINGTON      CLOUDY    26  20  75 N10       29.86R WCI  17
$$
MIZ007>008-015-102100-
EASTERN UPPER MICHIGAN

CITY           SKY/WX    TMP DP  RH WIND       PRES   REMARKS
KINROSS        LGT SNOW  18  12  79 NW18G25   29.80R WCI   2
MACKINAC ISLAN CLOUDY    23  14  68 NW13G18   29.81R WCI  11
NEWBERRY       FLURRIES  16  10  78 N13G20    29.84R WCI   2
S. S. MARIE    CLOUDY    17   8  67 NW12G20   29.81R WCI   4
$$
MIZ004>006-011>014-085-102100-
CENTRAL UPPER MICHIGAN

CITY           SKY/WX    TMP DP  RH WIND       PRES   REMARKS
MANISTIQUE     CLOUDY    20  10  64 N10G18    29.86R WCI   9
ESCANABA       FLURRIES  24  14  65 N9G16     29.89R WCI  14
MENOMINEE      CLOUDY    26  16  65 NW9       29.90R WCI  17
SAWYER-GWINN   LGT SNOW  16  10  79 N18       29.87R WCI  -1
$$
MIZ001>003-009>011-084-102100-
WESTERN UPPER MICHIGAN

CITY           SKY/WX    TMP DP  RH WIND       PRES   REMARKS
IRON MOUNTAIN  CLOUDY    22  14  71 N12G21    29.86R WCI  10
HOUGHTON       CLOUDY    15   4  61 N12       29.92R WCI   2
COPPER HARBOR    N/A     17   9  70 NE15G28   29.94S WCI   2
IRONWOOD       FLURRIES  19  15  84 NW8       29.95R WCI   9
$$

ABBREVIATIONS USED IN REMARKS
   TC - TEMPERATURE IN CELSIUS
  WCI - WIND CHILL INDEX
   HX - HEAT INDEX
  VSB - VISIBILITY





USA.gov is the U.S. government's official web portal to all federal, state and local government web resources and services.